Weather Roundup
Issued by NWS Chicago, IL

Home | Current Version | Previous Version | Graphics & Text | Print | Product List | Glossary On
Versions: 1 2 3 4 5 6 7 8 9 10 11 12 13 14 15 16 17 18 19 20 21 22 23 24 25 26 27 28 29 30 31 32 33 34 35 36 37 38 39 40 41 42 43 44 45 46 47 48 49 50
353
NZUS59 KLOT 200608
HRRLOT

CHICAGO AREA WEATHER ROUNDUP
NATIONAL WEATHER SERVICE CHICAGO/ROMEOVILLE IL
1200 AM CST SAT JAN 20 2018

NOTE: "FAIR" INDICATES FEW OR NO CLOUDS BELOW 12,000 FEET WITH NO
SIGNIFICANT WEATHER AND/OR OBSTRUCTIONS TO VISIBILITY.

* THESE STATIONS ARE NOT UNDER NWS QUALITY CONTROL. THEY ALSO MAY NOT
  REPORT WEATHER SUCH AS PRECIPITATION OR FOG.

ILZ005-006-012>014-019>023-200700-
NORTHEAST ILLINOIS

CITY           SKY/WX    TMP DP  RH WIND       PRES   REMARKS
OHARE          MOCLDY    39  28  64 SW15      29.77R
6HR MIN TEMP:  39; 6HR MAX TEMP:  40;

MIDWAY         CLOUDY    39  29  67 SW18G26   29.79S
6HR MIN TEMP:  38; 6HR MAX TEMP:  40;

AURORA           N/A     36  28  73 S12       29.80S
6HR MIN TEMP:  36; 6HR MAX TEMP:  39;

LANSING*         N/A     35  30  82 SW14      29.83S WCI  25
JOLIET*          N/A     38  30  73 SW8       29.83S
WAUKEGAN         N/A     40  28  62 SW12G22   29.73R
6HR MIN TEMP:  38; 6HR MAX TEMP:  42;

DUPAGE AIRPORT   N/A     36  29  75 S14       29.78S
6HR MIN TEMP:  35; 6HR MAX TEMP:  38;

WHEELING         N/A     40  29  64 SW10      29.77S
6HR MIN TEMP:  40; 6HR MAX TEMP:  43;

KANKAKEE*        N/A    N/A N/A N/A SW12      29.87S
MORRIS*          N/A     36  29  77 S12       29.82S
LEWIS AIRPORT*   N/A     36  29  75 SW13      29.82R
NORTHERLY ISL    N/A     39  27  62 W8          N/A
$$

WIZ051-052-058>065-066-070>072-200700-
SOUTHEAST WISCONSIN

CITY           SKY/WX    TMP DP  RH WIND       PRES   REMARKS
MILWAUKEE        N/A     42  29  59 SW14G28   29.71R
6HR MIN TEMP:  38; 6HR MAX TEMP:  43;

KENOSHA*         N/A     41  28  60 W22G35    29.72R
RACINE*          N/A     41  28  60 W13       29.73R
BURLINGTON       N/A     40  28  62 SW14G22   29.73R
WAUKESHA         N/A     36  28  75 SW13G20   29.72R
WEST BEND        N/A     36  28  75 W10G17    29.68S
$$

INZ001>003-010>013-019-020-200700-
NORTHWEST INDIANA

CITY           SKY/WX    TMP DP  RH WIND       PRES   REMARKS
GARY*            N/A     38  27  63 SW12G24   29.82S
6HR MIN TEMP:  37; 6HR MAX TEMP:  39;

MICHIGAN CITY* NOT AVBL
RENSSELAER*    NOT AVBL
VALPARAISO       N/A     35  27  72 SW15      29.84S WCI  25
$$

LMZ740>746-200700-
SOUTHERN LAKE MICHIGAN

STATION/POSITION TIME  SKY/WX   TEMP WIND        PRES    VSBY
                                AIR  DIR/SP/G
                 (UTC)          (F)  (DEG/KT/KT) (MB)    (MI)
HARRISON CRIB    0540            41  220/ 21/ 24   N/A
BURNHAM HARBOR   0600            40  200/  6/ 13   N/A
CALUMET HARBOR   0548                200/ 17/ 21   N/A
BURNS HARBOR     0540            38  210/ 18/ 27 1010.2R
MICHIGAN CITY    0540            38  190/ 20/ 23   N/A
$$

ABBREVIATIONS USED IN REMARKS
   TC - TEMPERATURE IN CELSIUS
  WCI - WIND CHILL INDEX
   HX - HEAT INDEX
  VSB - VISIBILITY
$$




USA.gov is the U.S. government's official web portal to all federal, state and local government web resources and services.